Date,TemperatureHighF,TemperatureAvgF,TemperatureLowF,DewpointHighF,DewpointAvgF,DewpointLowF,HumidityHigh,HumidityAvg,HumidityLow,PressureMaxIn,PressureMinIn,WindSpeedMaxMPH,WindSpeedAvgMPH,GustSpeedMaxMPH,PrecipitationSumIn
2013-5-1,87.0,73.7,58.0,24.0,16.8,10.0,20,12,8,30.04,29.85,18,10,25,0.00
2013-5-2,69.0,57.5,49.0,37.0,24.4,9.0,48,30,11,30.42,30.03,20,12,27,0.00
2013-5-3,67.0,53.9,40.0,22.0,16.9,10.0,47,26,12,30.43,30.03,22,11,29,0.00
2013-5-4,82.0,70.9,47.0,24.0,18.4,7.0,20,14,10,30.04,29.86,22,8,27,0.00
2013-5-5,83.0,72.4,62.0,29.0,22.5,17.0,19,15,13,30.11,29.93,24,13,32,0.00
2013-5-6,81.0,72.1,63.0,40.0,28.7,21.0,40,21,13,30.07,29.95,25,12,41,0.00
2013-5-7,82.0,69.7,56.0,32.0,26.1,22.0,27,20,12,30.10,29.92,20,11,29,0.00
2013-5-8,81.0,69.3,54.0,31.0,24.7,18.0,33,20,12,30.09,29.94,20,11,30,0.00
2013-5-9,80.0,68.2,51.0,30.0,23.1,16.0,31,19,13,30.06,29.94,17,9,25,0.00
2013-5-10,76.0,65.7,57.0,45.0,32.4,-99.9,62,32,18,30.20,30.00,29,10,40,0.00
2013-5-11,75.0,62.4,51.0,44.0,39.3,-99.9,72,47,19,30.30,30.19,17,9,28,0.00
2013-5-12,78.0,66.6,50.0,42.0,34.8,28.0,57,33,18,30.33,30.15,16,7,24,0.00
2013-5-13,81.0,69.8,57.0,36.0,29.4,22.0,41,24,12,30.30,30.13,15,9,20,0.00
2013-5-14,83.0,71.6,58.0,41.0,34.5,26.0,46,28,13,30.18,29.98,13,7,18,0.00
2013-5-15,83.0,68.1,58.0,34.0,30.3,28.0,32,25,16,30.08,30.01,17,7,24,0.00
2013-5-16,91.0,75.9,63.0,31.0,3.9,-99.9,25,13,9,30.05,29.88,21,11,35,0.00
2013-5-17,91.0,77.0,60.0,30.0,20.1,-99.9,21,14,10,30.02,29.89,17,7,24,0.00
2013-5-18,88.0,76.6,62.0,31.0,22.3,15.0,22,14,7,30.04,29.87,21,11,31,0.00
2013-5-19,89.0,75.2,57.0,31.0,22.6,18.0,23,15,8,30.01,29.82,21,12,32,0.00
2013-5-20,90.0,76.0,56.0,31.0,25.5,19.0,30,16,9,30.00,29.80,23,12,36,0.00
2013-5-21,86.0,73.2,54.0,30.0,22.9,15.0,30,16,9,30.05,29.90,16,8,28,0.00
2013-5-22,92.0,77.8,57.0,23.0,18.8,14.0,19,11,7,29.98,29.85,18,8,23,0.00
2013-5-23,96.0,80.6,62.0,50.0,26.5,16.0,46,15,9,30.01,29.85,23,9,32,0.00
2013-5-24,94.0,78.1,61.0,50.0,41.8,29.0,64,32,12,30.10,29.94,16,9,22,0.00
2013-5-25,95.0,82.1,69.0,55.0,37.5,18.0,58,26,8,30.09,29.93,17,9,24,0.00
2013-5-26,94.0,80.4,61.0,31.0,22.1,12.0,19,12,7,30.10,29.94,18,9,27,0.00
2013-5-27,92.0,78.6,60.0,25.0,16.7,9.0,16,10,7,30.02,29.83,17,7,24,0.00
2013-5-28,92.0,78.3,60.0,25.0,16.9,11.0,15,10,7,29.87,29.69,25,10,36,0.00
2013-5-29,89.0,78.0,67.0,32.0,26.0,11.0,23,15,9,29.87,29.72,25,14,36,0.00
2013-5-30,92.0,79.0,62.0,41.0,33.1,24.0,29,20,12,29.96,29.81,21,11,30,0.00
2013-5-31,95.0,81.8,65.0,38.0,31.6,24.0,26,17,11,30.00,29.84,17,10,24,0.00